When you browse on this site, cookies collect data to enhance your experience and personalize the content and advertising you see.
Visit our Privacy Policy to learn more. By continuing to use the site, you agree to this use of cookies and data.
  • In Deutschland
  • Länderverzeichnis
  • Für 7 Tage
  • Wassertemperatur
  • Wetterkarte
  • Widgets
  • user-avatar
    Anmelden

    Stündliche Wetter Rangpur

    Heute, 22 Januar, Mittwoch

    Zeit Temperatur Niederschläge Wind Luftdruck Luftfeuchtigkeit
    00:00 +17°C° 0 mm 2 m/S 761 mmHg 59%
    01:00 +17°C° 0 mm 2 m/S 761 mmHg 60%
    02:00 +16°C° 0 mm 1 m/S 761 mmHg 61%
    03:00 +16°C° 0 mm 1 m/S 760 mmHg 62%
    04:00 +15°C° 0 mm 1 m/S 760 mmHg 62%
    05:00 +15°C° 0 mm 1 m/S 760 mmHg 63%
    06:00 +14°C° 0 mm 1 m/S 761 mmHg 69%
    07:00 +15°C° 0 mm 1 m/S 761 mmHg 65%
    08:00 +16°C° 0 mm 1 m/S 762 mmHg 61%
    09:00 +19°C° 0 mm 1 m/S 762 mmHg 57%
    10:00 +20°C° 0 mm 1 m/S 762 mmHg 52%
    11:00 +22°C° 0 mm 1 m/S 761 mmHg 47%
    12:00 +21°C° 0 mm 0 m/S 762 mmHg 40%
    13:00 +24°C° 0 mm 1 m/S 761 mmHg 37%
    14:00 +25°C° 0 mm 2 m/S 760 mmHg 34%
    15:00 +25°C° 0 mm 3 m/S 759 mmHg 31%
    16:00 +24°C° 0 mm 3 m/S 759 mmHg 33%
    17:00 +23°C° 0 mm 2 m/S 759 mmHg 35%
    18:00 +21°C° 0 mm 2 m/S 759 mmHg 37%
    19:00 +21°C° 0 mm 2 m/S 759 mmHg 39%
    20:00 +20°C° 0 mm 2 m/S 759 mmHg 41%
    21:00 +19°C° 0 mm 2 m/S 760 mmHg 43%
    22:00 +20°C° 0 mm 1 m/S 759 mmHg 44%
    23:00 +19°C° 0 mm 1 m/S 759 mmHg 46%

    Morgen, 23 Januar, Donnerstag

    Zeit Temperatur Niederschläge Wind Luftdruck Luftfeuchtigkeit
    00:00 +18°C° 0 mm 1 m/S 759 mmHg 47%
    01:00 +18°C° 0 mm 1 m/S 758 mmHg 50%
    02:00 +16°C° 0 mm 1 m/S 758 mmHg 52%
    03:00 +16°C° 0 mm 1 m/S 758 mmHg 54%
    04:00 +16°C° 0 mm 1 m/S 758 mmHg 56%
    05:00 +15°C° 0 mm 1 m/S 758 mmHg 58%
    06:00 +15°C° 0 mm 1 m/S 758 mmHg 60%
    07:00 +16°C° 0 mm 1 m/S 759 mmHg 56%
    08:00 +18°C° 0 mm 1 m/S 760 mmHg 52%
    09:00 +19°C° 0 mm 1 m/S 760 mmHg 49%
    10:00 +21°C° 0 mm 1 m/S 760 mmHg 44%
    11:00 +22°C° 0 mm 1 m/S 759 mmHg 40%
    12:00 +24°C° 0 mm 2 m/S 759 mmHg 35%
    13:00 +24°C° 0 mm 2 m/S 758 mmHg 32%
    14:00 +25°C° 0 mm 3 m/S 757 mmHg 29%
    15:00 +26°C° 0 mm 4 m/S 757 mmHg 26%
    16:00 +25°C° 0 mm 4 m/S 757 mmHg 30%
    17:00 +22°C° 0 mm 3 m/S 756 mmHg 33%
    18:00 +21°C° 0 mm 3 m/S 756 mmHg 37%
    19:00 +20°C° 0 mm 3 m/S 757 mmHg 40%
    20:00 +20°C° 0 mm 2 m/S 758 mmHg 43%
    21:00 +19°C° 0 mm 2 m/S 758 mmHg 46%
    22:00 +18°C° 0 mm 2 m/S 758 mmHg 48%
    23:00 +18°C° 0 mm 2 m/S 758 mmHg 50%

    übermorgen, 24 Januar, Freitag

    Zeit Temperatur Niederschläge Wind Luftdruck Luftfeuchtigkeit
    00:00 +17°C° 0 mm 2 m/S 758 mmHg 52%
    01:00 +17°C° 0 mm 2 m/S 758 mmHg 54%
    02:00 +16°C° 0 mm 1 m/S 758 mmHg 56%
    03:00 +16°C° 0 mm 1 m/S 757 mmHg 58%
    04:00 +15°C° 0 mm 1 m/S 758 mmHg 60%
    05:00 +15°C° 0 mm 1 m/S 758 mmHg 61%
    06:00 +14°C° 0 mm 1 m/S 758 mmHg 63%
    07:00 +15°C° 0 mm 1 m/S 759 mmHg 60%
    08:00 +16°C° 0 mm 1 m/S 759 mmHg 57%
    09:00 +19°C° 0 mm 1 m/S 760 mmHg 53%
    10:00 +20°C° 0 mm 1 m/S 759 mmHg 48%
    11:00 +22°C° 0 mm 1 m/S 759 mmHg 43%
    12:00 +24°C° 0 mm 1 m/S 759 mmHg 38%
    13:00 +24°C° 0 mm 1 m/S 758 mmHg 36%
    14:00 +24°C° 0 mm 1 m/S 757 mmHg 33%
    15:00 +25°C° 0 mm 1 m/S 757 mmHg 30%
    16:00 +24°C° 0 mm 1 m/S 757 mmHg 32%
    17:00 +23°C° 0 mm 1 m/S 756 mmHg 35%
    18:00 +22°C° 0 mm 1 m/S 756 mmHg 37%
    19:00 +21°C° 0 mm 1 m/S 757 mmHg 40%
    20:00 +21°C° 0 mm 1 m/S 758 mmHg 43%
    21:00 +20°C° 0 mm 1 m/S 758 mmHg 46%
    22:00 +19°C° 0 mm 1 m/S 758 mmHg 48%
    23:00 +19°C° 0 mm 1 m/S 758 mmHg 49%

    25 Januar, Samstag

    Zeit Temperatur Niederschläge Wind Luftdruck Luftfeuchtigkeit
    00:00 +18°C° 0 mm 1 m/S 758 mmHg 51%
    01:00 +18°C° 0 mm 1 m/S 758 mmHg 54%
    02:00 +16°C° 0 mm 2 m/S 758 mmHg 57%
    03:00 +16°C° 0 mm 2 m/S 757 mmHg 61%
    04:00 +16°C° 0 mm 2 m/S 758 mmHg 62%
    05:00 +15°C° 0 mm 2 m/S 758 mmHg 64%
    06:00 +15°C° 0 mm 2 m/S 758 mmHg 66%
    07:00 +16°C° 0 mm 2 m/S 758 mmHg 62%
    08:00 +17°C° 0 mm 3 m/S 759 mmHg 58%
    09:00 +18°C° 0 mm 3 m/S 759 mmHg 55%
    10:00 +20°C° 0 mm 3 m/S 759 mmHg 50%
    11:00 +21°C° 0 mm 3 m/S 759 mmHg 44%
    12:00 +24°C° 0 mm 3 m/S 758 mmHg 39%
    13:00 +24°C° 0 mm 3 m/S 757 mmHg 37%
    14:00 +25°C° 0 mm 2 m/S 756 mmHg 35%
    15:00 +25°C° 0 mm 2 m/S 756 mmHg 33%
    16:00 +24°C° 0 mm 2 m/S 756 mmHg 35%
    17:00 +23°C° 0 mm 1 m/S 756 mmHg 37%
    18:00 +22°C° 0 mm 1 m/S 756 mmHg 39%
    19:00 +22°C° 0 mm 1 m/S 756 mmHg 41%
    20:00 +21°C° 0 mm 1 m/S 757 mmHg 43%
    21:00 +21°C° 0 mm 1 m/S 757 mmHg 45%
    22:00 +20°C° 0 mm 1 m/S 757 mmHg 46%
    23:00 +20°C° 0 mm 1 m/S 757 mmHg 48%

    26 Januar, Sonntag

    Zeit Temperatur Niederschläge Wind Luftdruck Luftfeuchtigkeit
    00:00 +19°C° 0 mm 1 m/S 757 mmHg 49%
    01:00 +18°C° 0 mm 1 m/S 757 mmHg 52%
    02:00 +18°C° 0 mm 1 m/S 757 mmHg 54%
    03:00 +16°C° 0 mm 1 m/S 756 mmHg 56%
    04:00 +16°C° 0 mm 1 m/S 756 mmHg 58%
    05:00 +15°C° 0 mm 1 m/S 756 mmHg 60%
    06:00 +15°C° 0 mm 2 m/S 756 mmHg 62%
    07:00 +16°C° 0 mm 2 m/S 757 mmHg 59%
    08:00 +17°C° 0 mm 2 m/S 757 mmHg 57%
    09:00 +19°C° 0 mm 2 m/S 758 mmHg 54%
    10:00 +20°C° 0 mm 2 m/S 758 mmHg 49%
    11:00 +23°C° 0 mm 2 m/S 757 mmHg 44%
    12:00 +24°C° 0 mm 2 m/S 757 mmHg 39%
    13:00 +25°C° 0 mm 2 m/S 756 mmHg 36%
    14:00 +25°C° 0 mm 1 m/S 756 mmHg 34%
    15:00 +24°C° 0 mm 0 m/S 755 mmHg 32%
    16:00 +23°C° 0 mm 0 m/S 755 mmHg 33%
    17:00 +22°C° 0 mm 0 m/S 755 mmHg 35%
    18:00 +23°C° 0 mm 1 m/S 755 mmHg 37%
    19:00 +23°C° 0 mm 1 m/S 756 mmHg 38%
    20:00 +22°C° 0 mm 1 m/S 756 mmHg 39%
    21:00 +22°C° 0 mm 1 m/S 757 mmHg 40%
    22:00 +21°C° 0 mm 1 m/S 757 mmHg 42%
    23:00 +20°C° 0 mm 2 m/S 756 mmHg 44%

    27 Januar, Montag

    Zeit Temperatur Niederschläge Wind Luftdruck Luftfeuchtigkeit
    00:00 +20°C° 0 mm 2 m/S 756 mmHg 45%
    01:00 +19°C° 0 mm 2 m/S 756 mmHg 48%
    02:00 +18°C° 0 mm 2 m/S 756 mmHg 52%
    03:00 +17°C° 0 mm 2 m/S 755 mmHg 55%
    04:00 +17°C° 0 mm 2 m/S 755 mmHg 56%
    05:00 +16°C° 0 mm 1 m/S 755 mmHg 58%
    06:00 +16°C° 0 mm 1 m/S 756 mmHg 60%
    07:00 +18°C° 0 mm 1 m/S 756 mmHg 56%
    08:00 +19°C° 0 mm 1 m/S 757 mmHg 52%
    09:00 +20°C° 0 mm 1 m/S 757 mmHg 49%
    10:00 +22°C° 0 mm 1 m/S 757 mmHg 44%
    11:00 +24°C° 0 mm 1 m/S 757 mmHg 40%
    12:00 +23°C° 0 mm 0 m/S 756 mmHg 35%
    13:00 +26°C° 0 mm 1 m/S 756 mmHg 33%
    14:00 +26°C° 0 mm 1 m/S 755 mmHg 31%
    15:00 +26°C° 0 mm 1 m/S 755 mmHg 29%
    16:00 +26°C° 0 mm 1 m/S 755 mmHg 30%
    17:00 +25°C° 0 mm 2 m/S 755 mmHg 32%
    18:00 +24°C° 0 mm 2 m/S 755 mmHg 34%
    19:00 +23°C° 0 mm 2 m/S 755 mmHg 36%
    20:00 +23°C° 0 mm 2 m/S 756 mmHg 38%
    21:00 +23°C° 0 mm 2 m/S 756 mmHg 39%
    22:00 +21°C° 0 mm 2 m/S 757 mmHg 41%
    23:00 +21°C° 0 mm 2 m/S 757 mmHg 43%
    Mehr zeigen